This is the latest recevied weather packets stored in our database for station/object NK7I. If no packets are shown the sender has not sent any weather packets the latest 10 day(s).
| Time | Temp. | Humidity | Pressure | Rain* | Wind** | Luminosity | Snow |
|---|---|---|---|---|---|---|---|
| 1777917382 | 19.44° C | 44% | 1009.9 hPa | 0 mm | - | 1062 W/m² | - |
| 1777917082 | 19.44° C | 46% | 1010 hPa | 0 mm | - | 933 W/m² | - |
| 1777916782 | 19.44° C | 43% | 1010 hPa | 0 mm | - | 970 W/m² | - |
| 1777916482 | 19.44° C | 43% | 1010.1 hPa | 0 mm | - | 953 W/m² | - |
| 1777916182 | 19.44° C | 45% | 1010 hPa | 0 mm | - | 977 W/m² | - |
| 1777915882 | 18.89° C | 49% | 1010 hPa | 0 mm | - | 896 W/m² | - |
| 1777915582 | 18.89° C | 49% | 1010 hPa | 0 mm | - | 889 W/m² | - |
| 1777915282 | 18.89° C | 52% | 1010 hPa | 0 mm | - | 853 W/m² | - |
| 1777914982 | 18.33° C | 50% | 1010.1 hPa | 0 mm | - | 874 W/m² | - |
| 1777914682 | 18.33° C | 54% | 1010.1 hPa | 0 mm | - | 881 W/m² | - |
| 1777914382 | 17.78° C | 50% | 1010.1 hPa | 0 mm | - | 995 W/m² | - |
| 1777914082 | 17.78° C | 55% | 1010.3 hPa | 0 mm | - | 954 W/m² | - |
| 1777913782 | 17.22° C | 56% | 1010.3 hPa | 0 mm | - | 970 W/m² | - |
| 1777913483 | 16.67° C | 58% | 1010.4 hPa | 0 mm | - | 914 W/m² | - |
| 1777913182 | 16.67° C | 57% | 1010.3 hPa | 0 mm | - | 893 W/m² | - |
| 1777912882 | 16.11° C | 55% | 1010.4 hPa | 0 mm | - | 896 W/m² | - |
| 1777912583 | 15.56° C | 61% | 1010.3 hPa | 0 mm | - | 886 W/m² | - |
| 1777912282 | 15.56° C | 59% | 1010.4 hPa | 0 mm | - | 889 W/m² | - |
| 1777911982 | 15° C | 60% | 1010.4 hPa | 0 mm | - | 837 W/m² | - |
| 1777911682 | 15° C | 59% | 1010.4 hPa | 0 mm | - | 731 W/m² | - |
| 1777911382 | 14.44° C | 60% | 1010.4 hPa | 0 mm | - | 701 W/m² | - |
| 1777911082 | 14.44° C | 59% | 1010.4 hPa | 0 mm | - | 587 W/m² | - |
| 1777910783 | 14.44° C | 58% | 1010.5 hPa | 0 mm | - | 536 W/m² | - |
| 1777910482 | 13.89° C | 59% | 1010.5 hPa | 0 mm | - | 482 W/m² | - |
| 1777910182 | 13.89° C | 59% | 1010.6 hPa | 0 mm | - | 492 W/m² | - |
* Rain latest hour (hover to see other rain measurements)
** Current wind speed in m/s (hover to see current wind gust speed)